TimeCDT,TemperatureF,Dew PointF,Humidity,Sea Level PressureIn,VisibilityMPH,Wind Direction,Wind SpeedMPH,Gust SpeedMPH,PrecipitationIn,Events,Conditions,WindDirDegrees,DateUTC
12:53 AM,57.9,53.1,84,29.77,10.0,South,6.9,-,N/A,,Clear,180,2012-10-17 05:53:00
1:53 AM,57.0,54.0,89,29.76,10.0,South,8.1,-,N/A,,Partly Cloudy,180,2012-10-17 06:53:00
2:53 AM,57.9,54.0,87,29.74,10.0,South,8.1,-,N/A,,Mostly Cloudy,170,2012-10-17 07:53:00
3:53 AM,57.9,54.0,87,29.71,10.0,South,9.2,-,N/A,,Clear,170,2012-10-17 08:53:00
4:53 AM,57.9,54.0,87,29.71,10.0,South,6.9,-,N/A,,Scattered Clouds,170,2012-10-17 09:53:00
5:53 AM,57.9,54.0,87,29.70,10.0,South,6.9,-,N/A,,Clear,180,2012-10-17 10:53:00
6:53 AM,57.9,54.0,87,29.70,10.0,South,8.1,-,N/A,,Partly Cloudy,170,2012-10-17 11:53:00
7:53 AM,59.0,53.1,81,29.70,10.0,South,6.9,-,N/A,,Clear,180,2012-10-17 12:53:00
8:53 AM,63.0,54.0,72,29.70,10.0,South,10.4,-,N/A,,Clear,170,2012-10-17 13:53:00
9:53 AM,68.0,55.0,63,29.68,10.0,South,12.7,-,N/A,,Clear,180,2012-10-17 14:53:00
10:53 AM,73.9,57.9,57,29.68,10.0,SW,24.2,32.2,N/A,,Clear,220,2012-10-17 15:53:00
11:53 AM,75.0,59.0,57,29.65,10.0,SSW,19.6,29.9,N/A,,Mostly Cloudy,200,2012-10-17 16:53:00
12:53 PM,75.9,59.0,56,29.62,10.0,South,19.6,28.8,N/A,,Overcast,190,2012-10-17 17:53:00
1:53 PM,80.1,61.0,52,29.57,10.0,SSW,25.3,35.7,N/A,,Scattered Clouds,210,2012-10-17 18:53:00
2:53 PM,79.0,62.1,56,29.55,10.0,SSW,20.7,31.1,N/A,,Overcast,210,2012-10-17 19:53:00
3:53 PM,77.0,62.1,60,29.53,10.0,SSW,15.0,-,N/A,,Overcast,200,2012-10-17 20:53:00
4:53 PM,78.1,62.1,58,29.52,10.0,SSW,20.7,26.5,N/A,,Overcast,200,2012-10-17 21:53:00
5:53 PM,75.0,64.0,69,29.47,10.0,South,17.3,23.0,0.00,,Mostly Cloudy,190,2012-10-17 22:53:00
6:28 PM,71.6,66.2,83,29.47,3.0,SSW,15.0,24.2,0.12,Rain-Thunderstorm,Heavy Thunderstorms and Rain,200,2012-10-17 23:28:00
6:43 PM,69.8,66.2,88,29.49,2.5,WSW,23.0,29.9,0.25,Rain-Thunderstorm,Heavy Rain,240,2012-10-17 23:43:00
6:53 PM,70.0,66.9,90,29.48,9.0,SSW,13.8,25.3,0.26,Rain-Thunderstorm,Light Rain,200,2012-10-17 23:53:00
6:55 PM,69.8,66.2,88,29.48,10.0,SW,12.7,25.3,0.00,Rain-Thunderstorm,Light Rain,220,2012-10-17 23:55:00
7:11 PM,69.8,66.2,88,29.49,10.0,WSW,16.1,-,0.00,,Mostly Cloudy,240,2012-10-18 00:11:00
7:53 PM,70.0,66.0,87,29.51,10.0,WSW,11.5,-,0.00,,Overcast,250,2012-10-18 00:53:00
8:18 PM,71.6,66.2,83,29.54,10.0,West,13.8,-,0.00,Rain-Thunderstorm,Light Rain,280,2012-10-18 01:18:00
8:39 PM,64.4,59.0,83,29.53,4.0,NNW,16.1,21.9,0.15,Rain-Thunderstorm,Thunderstorms and Rain,330,2012-10-18 01:39:00
8:53 PM,63.0,57.9,84,29.54,10.0,NW,11.5,-,0.19,Rain-Thunderstorm,Light Rain,320,2012-10-18 01:53:00
9:16 PM,62.6,57.2,82,29.57,10.0,WNW,11.5,-,N/A,Rain,Light Rain,300,2012-10-18 02:16:00
9:53 PM,63.0,57.9,84,29.56,10.0,NNW,12.7,21.9,0.00,,Scattered Clouds,330,2012-10-18 02:53:00
10:53 PM,62.1,54.0,75,29.65,10.0,NW,8.1,20.7,0.00,,Mostly Cloudy,320,2012-10-18 03:53:00
11:53 PM,59.0,53.1,81,29.68,10.0,NW,3.5,-,N/A,,Clear,310,2012-10-18 04:53:00